[[{"header":{"parameterUnit":"m.s-1","parameterCategory":1,"la1":30.2991,"la2":30.254,"lo1":-89.0895,"lo2":-89.0444,"dy":0.0017,"dx":0.0017,"nx":28,"ny":28,"refTime":"2023-03-18T21:00:00:Z","depth":0,"parameterNumber":2,"parameterNumberName":"U-component_of_WINDS"},"data":[0,0,0,0,0,0,0,0,0,0,0,0,0,0,0,0,0,0,0,0,0,0,0,0,0,0,0,0,0,0,0,0,0,0,0,0,0,0,0,0,0,0,0,0,0,0,0,0,0,0,0,0,0,0,0,0,0,0,-3.568,-3.5681,0,-3.5751,-3.5751,-3.5752,-3.5599,-3.5594,-3.5589,-3.5585,-3.5657,-3.5663,-3.567,0,0,0,0,0,0,0,0,0,0,0,0,0,-3.5413,-3.5418,-3.568,-3.5681,-3.5682,-3.575,-3.5751,-3.5752,-3.56,-3.5594,-3.5588,-3.5582,-3.5655,-3.5663,-3.5671,0,0,0,0,0,0,0,0,0,0,0,0,0,-3.5511,-3.542,-3.568,-3.5614,-3.5609,-3.575,-3.5751,-3.5753,-3.5601,-3.5594,-3.5586,-3.558,-3.5652,-3.5662,-3.5672,-3.588,0,0,-3.5702,-3.5706,0,0,0,0,0,0,0,0,-3.5505,-3.5521,-3.5623,-3.5619,-3.5613,-3.5658,-3.5683,-3.5795,-3.5603,-3.5604,-3.5584,-3.5576,-3.5664,-3.5672,-3.5701,-3.5884,-3.5887,-3.5702,-3.5708,-3.5713,-3.5715,0,0,0,0,0,0,0,-3.5499,-3.5517,-3.5708,-3.5625,-3.5619,-3.5581,-3.5586,-3.5704,-3.5675,-3.5604,-3.5593,-3.5603,-3.566,-3.5692,-3.5702,-3.5888,-3.5702,-3.5711,-3.5717,-3.5721,-3.6242,-3.6249,0,0,0,0,0,0,-3.55,-3.5512,-3.5706,-3.571,-3.554,-3.5592,-3.5598,-3.5652,-3.5673,-3.5669,-3.5609,-3.5596,-3.5679,-3.5691,-3.5704,-3.5948,-3.5712,-3.5722,-3.5727,-3.6234,-3.6243,-3.6252,0,0,0,0,0,0,-3.5495,-3.5519,-3.5703,-3.5608,-3.5629,-3.5604,-3.5665,-3.5657,-3.5689,-3.5677,-3.5671,-3.5648,-3.5674,-3.569,-3.5837,-3.5949,-3.5726,-3.5735,-3.6224,-3.6237,-3.6248,-3.644,0,0,0,0,0,0,-3.5488,-3.5518,-3.5598,-3.5611,-3.5634,-3.5836,-3.5672,-3.5664,-3.5707,-3.569,-3.5712,-3.5709,-3.5669,-3.5823,-3.5847,-3.5958,-3.5743,-3.6214,-3.623,-3.6244,-3.6423,-3.6457,-3.6485,0,0,0,0,0,-3.5479,-3.565,-3.5603,-3.5627,-3.5734,-3.5843,-3.5856,-3.5807,-3.5716,-3.5796,-3.5787,-3.5708,-3.5932,-3.5839,-3.5865,-3.5981,-3.6207,-3.6226,-3.6243,-3.6409,-3.645,-3.6485,0,0,0,0,0,0,-3.5651,-3.565,-3.5598,-3.5778,-3.5812,-3.5817,-3.5916,-3.5852,-3.5912,-3.5894,-3.583,-3.5836,-3.5995,-3.6002,-3.5899,-3.6182,-3.6054,-3.6078,-3.6172,-3.6211,-3.6241,-3.6237,-3.5751,0,0,0,0,0,-3.571,-3.5799,-3.5793,-3.5953,-3.5972,-3.5941,-3.5987,-3.5946,-3.5978,-3.5992,-3.5994,-3.6028,-3.6105,-3.6158,-3.6229,-3.6423,-3.6425,-3.6515,-3.6546,-3.6571,-3.6593,-3.6694,-3.6734,-3.6311,-3.6311,-3.631,0,0,-3.5833,-3.5843,-3.5903,-3.5987,-3.6008,-3.6101,-3.5954,-3.606,-3.6128,-3.6007,-3.6146,-3.6149,-3.6182,-3.6353,-3.6428,-3.6364,-3.671,-3.6594,-3.6615,-3.6623,-3.6717,-3.6757,-3.6792,-3.6323,-3.6321,-3.6319,0,0,-3.6103,-3.6121,-3.6255,-3.6278,-3.6311,-3.6289,-3.6322,-3.6336,-3.6333,-3.6471,-3.6382,-3.6462,-3.6597,-3.6624,-3.6656,-3.6934,-3.6863,-3.6959,-3.7122,-3.7221,-3.7254,-3.7283,-3.7382,-3.7418,-3.698,-3.6981,-3.6981,0,-3.6252,-3.6389,-3.6332,-3.6442,-3.6481,-3.6376,-3.651,-3.6536,-3.6591,-3.662,-3.6547,-3.6713,-3.6729,-3.6903,-3.6971,-3.7,-3.7034,-3.6957,-3.7254,-3.7283,-3.7309,-3.7402,-3.7439,-3.6992,-3.6991,-3.699,-3.6989,0,-3.6569,-3.6665,-3.6769,-3.6824,-3.6874,-3.6997,-3.6957,-3.7015,-3.6969,-3.6955,-3.7095,-3.7109,-3.718,-3.7218,-3.7175,-3.7387,-3.7345,-3.7265,-3.7134,-3.7362,-3.7448,-3.7483,-3.7009,-3.7005,-3.7001,-3.6998,0,0,-3.6952,-3.6972,-3.7011,-3.7034,-3.7062,-3.7135,-3.7251,-3.732,-3.737,-3.7411,-3.7507,-3.7623,-3.7547,-3.7583,-3.7541,-3.7628,-3.7846,-3.7536,-3.7536,-3.7593,-3.8079,-3.814,-3.8182,-3.7799,-3.7805,-3.7811,-3.8076,0,-3.722,-3.742,-3.7371,-3.7569,-3.7656,-3.7556,-3.7657,-3.7685,-3.7674,-3.7745,-3.7732,-3.7816,-3.771,-3.7731,-3.7812,-3.7803,-3.7943,-3.7783,-3.7886,-3.7891,-3.7882,-3.8227,-3.8292,-3.8542,-3.8109,-3.8115,-3.8119,0,-3.7559,-3.7612,-3.7819,-3.783,-3.7865,-3.7957,-3.8015,-3.8085,-3.8114,-3.8099,-3.8139,-3.8079,-3.8192,-3.8061,-3.8216,-3.8108,-3.8147,-3.8149,-3.8157,-3.8165,-3.8019,-3.8244,-3.8621,-3.8658,-3.8172,-3.8167,-3.8164,0,-3.7817,-3.794,-3.8079,-3.8102,-3.8119,-3.8186,-3.8196,-3.8217,-3.8261,-3.8311,-3.8338,-3.8402,-3.8437,-3.8487,-3.8445,-3.8353,-3.8607,-3.8472,-3.8597,-3.8599,-3.8656,-3.8653,-3.9043,-3.8682,-3.8681,-3.868,-3.8679,0,-3.8121,-3.8252,-3.8195,-3.8281,-3.8423,-3.8365,-3.8507,-3.8505,-3.8525,-3.8607,-3.8524,-3.8604,-3.8544,-3.8618,-3.8586,-3.8718,-3.8735,-3.8726,-3.8716,-3.8734,-3.8735,-3.8759,-3.874,-3.869,-3.8688,-3.8686,-3.8684,0,-3.8434,-3.8401,-3.8546,-3.855,-3.8553,-3.8658,-3.8661,-3.874,-3.8721,-3.8827,-3.8849,-3.8821,-3.8903,-3.8866,-3.8953,-3.8931,-3.9101,-3.9068,-3.9092,-3.9084,-3.921,-3.9199,-3.963,-3.9683,-3.9288,-3.9292,-3.9295,0,-3.863,-3.8728,-3.8741,-3.879,-3.8806,-3.8887,-3.8931,-3.8876,-3.8925,-3.8963,-3.9038,-3.9113,-3.917,-3.9306,-3.9293,-3.9358,-3.9326,-3.9472,-3.9335,-3.9349,-3.9327,-3.9322,-3.9331,-3.95,-3.9505,-3.9509,-3.9512,0,-3.8981,-3.896,-3.9026,-3.9087,-3.9141,-3.9187,-3.9225,-3.927,-3.9216,-3.9275,-3.9358,-3.9403,-3.949,-3.9565,-3.9622,-3.9631,-3.9563,-3.9555,-3.9587,-3.9606,-3.9615,-3.9611,-3.9167,-3.9545,-3.9542,-3.954,-3.9538,-3.9536,-3.9241,-3.9322,-3.9344,-3.942,-3.9443,-3.948,-3.9553,-3.9544,-3.9612,-3.9679,-3.9642,-3.9739,-3.9762,-3.9831,-3.985,-3.9924,-3.9866,-3.9913,-3.9925,-3.9937,-3.9954,-3.9604,-3.9934,-3.9933,-3.9932,-3.9931,-3.993,0,-3.9587,-3.9595,-3.9666,-3.9721,-3.9781,-3.971,-3.9748,-3.9803,-3.9889,-3.9916,-3.9974,-4.0068,-4.014,-4.0132,-4.0197,-4.0258,-4.0228,-4.0277,-4.0272,-4.0275,-4.0002,-3.9967,-4.03,-4.03,-4.03,-4.03,-4.03,-4.03,-3.9774,-3.9908,-3.9889,-4.0032,-4.0039,-4.0133,-4.016,-4.0193,-4.0214,-4.0324,-4.0383,-4.0377,-4.0389,-4.0455,-4.0517,-4.0512,-4.054,-4.0601,-4.0585,-4.0331,-4.0294,-4.0259,-4.0226,-4.0608,-4.0608,-4.0851,-4.0853,-4.0855]},{"header":{"parameterUnit":"m.s-1","parameterCategory":1,"la1":30.2991,"la2":30.254,"lo1":-89.0895,"lo2":-89.0444,"dy":0.0017,"dx":0.0017,"nx":28,"ny":28,"refTime":"2023-03-18T21:00:00:Z","depth":0,"parameterNumber":3,"parameterNumberName":"V-component_of_WINDS"},"data":[0,0,0,0,0,0,0,0,0,0,0,0,0,0,0,0,0,0,0,0,0,0,0,0,0,0,0,0,0,0,0,0,0,0,0,0,0,0,0,0,0,0,0,0,0,0,0,0,0,0,0,0,0,0,0,0,0,0,-5.4729,-5.473,0,-5.4838,-5.4839,-5.484,-5.4777,-5.4774,-5.4771,-5.4768,-5.4876,-5.4882,-5.4887,0,0,0,0,0,0,0,0,0,0,0,0,0,-5.4459,-5.4464,-5.4729,-5.473,-5.4731,-5.4838,-5.4839,-5.4841,-5.4778,-5.4774,-5.477,-5.4767,-5.4874,-5.4881,-5.4888,0,0,0,0,0,0,0,0,0,0,0,0,0,-5.4573,-5.4466,-5.4728,-5.4713,-5.4713,-5.4838,-5.4839,-5.4841,-5.4779,-5.4774,-5.477,-5.4765,-5.4872,-5.488,-5.4889,-5.5034,0,0,-5.4915,-5.4919,0,0,0,0,0,0,0,0,-5.4567,-5.4583,-5.4714,-5.4714,-5.4714,-5.4789,-5.4784,-5.4906,-5.478,-5.4754,-5.4768,-5.4763,-5.4851,-5.4861,-5.4891,-5.5039,-5.5043,-5.4916,-5.4921,-5.4925,-5.4927,0,0,0,0,0,0,0,-5.4559,-5.4578,-5.4772,-5.4716,-5.4716,-5.4698,-5.471,-5.4806,-5.4826,-5.4755,-5.4751,-5.4765,-5.485,-5.4883,-5.4893,-5.5045,-5.4916,-5.4923,-5.4928,-5.4932,-5.5313,-5.5318,0,0,0,0,0,0,-5.4553,-5.4572,-5.4768,-5.4775,-5.4628,-5.4707,-5.4719,-5.477,-5.4825,-5.4829,-5.4769,-5.4762,-5.4871,-5.4883,-5.4897,-5.5068,-5.4925,-5.4933,-5.4938,-5.5308,-5.5314,-5.532,0,0,0,0,0,0,-5.4547,-5.4571,-5.4764,-5.4672,-5.4695,-5.4717,-5.4774,-5.4774,-5.4808,-5.4836,-5.4838,-5.48,-5.4868,-5.4885,-5.5,-5.5071,-5.4937,-5.4944,-5.5302,-5.531,-5.5317,-5.5412,0,0,0,0,0,0,-5.454,-5.4569,-5.4626,-5.4674,-5.4701,-5.4867,-5.4778,-5.478,-5.4823,-5.4815,-5.4865,-5.4869,-5.4865,-5.4987,-5.5008,-5.508,-5.4951,-5.5296,-5.5306,-5.5315,-5.5403,-5.5422,-5.5439,0,0,0,0,0,-5.453,-5.4649,-5.463,-5.4654,-5.4773,-5.4871,-5.4886,-5.4881,-5.4829,-5.4885,-5.4903,-5.4867,-5.506,-5.5,-5.5023,-5.5098,-5.5291,-5.5303,-5.5314,-5.5395,-5.5418,-5.5438,0,0,0,0,0,0,-5.4608,-5.4655,-5.4634,-5.4772,-5.4818,-5.4861,-5.4931,-5.4907,-5.4968,-5.4957,-5.4946,-5.4958,-5.5077,-5.5099,-5.5031,-5.5239,-5.5167,-5.5184,-5.5221,-5.5243,-5.5261,-5.5252,-5.4958,0,0,0,0,0,-5.4641,-5.4719,-5.4755,-5.4873,-5.4897,-5.4911,-5.4954,-5.4945,-5.4992,-5.5011,-5.5037,-5.5083,-5.5153,-5.52,-5.5266,-5.5406,-5.5414,-5.5469,-5.5487,-5.5501,-5.5515,-5.5587,-5.5611,-5.5356,-5.5356,-5.5356,0,0,-5.471,-5.4746,-5.4795,-5.4889,-5.4924,-5.5003,-5.4928,-5.5015,-5.5072,-5.5024,-5.5134,-5.5154,-5.5204,-5.5331,-5.5389,-5.5353,-5.5587,-5.5516,-5.5527,-5.5533,-5.5601,-5.5626,-5.5647,-5.5364,-5.5363,-5.5361,0,0,-5.4876,-5.4912,-5.5013,-5.5049,-5.5103,-5.5111,-5.5135,-5.5181,-5.5193,-5.5303,-5.5268,-5.5335,-5.5458,-5.5494,-5.5528,-5.5705,-5.5674,-5.5727,-5.582,-5.589,-5.591,-5.5928,-5.5989,-5.6011,-5.5741,-5.5741,-5.5741,0,-5.4955,-5.5074,-5.5068,-5.5157,-5.5198,-5.5159,-5.5259,-5.5294,-5.5367,-5.5395,-5.5354,-5.5505,-5.5536,-5.567,-5.5713,-5.5743,-5.5768,-5.5721,-5.5909,-5.5926,-5.5943,-5.6,-5.6023,-5.5747,-5.5746,-5.5746,-5.5745,0,-5.5167,-5.525,-5.5324,-5.5396,-5.5445,-5.554,-5.5545,-5.5596,-5.5582,-5.5593,-5.5704,-5.574,-5.5812,-5.5843,-5.5831,-5.5975,-5.595,-5.591,-5.5837,-5.5973,-5.6027,-5.6049,-5.5756,-5.5753,-5.5752,-5.575,0,0,-5.5386,-5.5451,-5.5478,-5.5509,-5.5565,-5.5627,-5.5718,-5.579,-5.5832,-5.5883,-5.5957,-5.606,-5.6022,-5.6061,-5.6053,-5.6115,-5.625,-5.6066,-5.6067,-5.6097,-5.6406,-5.6435,-5.6461,-5.623,-5.6234,-5.6237,-5.6401,0,-5.5553,-5.5714,-5.571,-5.5859,-5.5933,-5.5896,-5.5974,-5.6016,-5.6028,-5.6091,-5.6104,-5.6177,-5.6122,-5.6145,-5.6205,-5.6221,-5.6311,-5.6209,-5.6296,-5.6299,-5.6283,-5.649,-5.6522,-5.6675,-5.6423,-5.6426,-5.6429,0,-5.5771,-5.5829,-5.5986,-5.6028,-5.6059,-5.613,-5.6193,-5.6255,-5.63,-5.6304,-5.6347,-5.6328,-5.6417,-5.6343,-5.6465,-5.6395,-5.643,-5.6443,-5.6449,-5.6455,-5.6371,-5.65,-5.6724,-5.6746,-5.6462,-5.646,-5.6457,0,-5.5911,-5.6029,-5.6137,-5.6165,-5.6217,-5.6268,-5.6292,-5.6332,-5.6374,-5.6429,-5.6455,-5.652,-5.6554,-5.6603,-5.6601,-5.6547,-5.6723,-5.6649,-5.6727,-5.6727,-5.6765,-5.6762,-5.6996,-5.6791,-5.6791,-5.679,-5.679,0,-5.6098,-5.6195,-5.62,-5.6267,-5.6373,-5.6365,-5.647,-5.6488,-5.6524,-5.6592,-5.6563,-5.6626,-5.662,-5.6684,-5.6682,-5.6782,-5.6798,-5.6802,-5.68,-5.6804,-5.6803,-5.6826,-5.6814,-5.6796,-5.6795,-5.6794,-5.6793,0,-5.6273,-5.6281,-5.6396,-5.6436,-5.6448,-5.6524,-5.6557,-5.6619,-5.6628,-5.6713,-5.6733,-5.6747,-5.682,-5.6822,-5.6906,-5.6905,-5.7025,-5.7013,-5.7011,-5.7007,-5.7084,-5.7076,-5.7339,-5.7372,-5.7148,-5.715,-5.7152,0,-5.6391,-5.6464,-5.6512,-5.6555,-5.6582,-5.6653,-5.6695,-5.669,-5.6735,-5.6791,-5.6845,-5.6915,-5.6971,-5.7088,-5.7105,-5.7168,-5.7155,-5.7242,-5.7164,-5.7164,-5.7153,-5.7148,-5.7154,-5.7257,-5.726,-5.7262,-5.7263,0,-5.6598,-5.6598,-5.6661,-5.6726,-5.6777,-5.6828,-5.6874,-5.6911,-5.691,-5.6962,-5.7036,-5.708,-5.7165,-5.7234,-5.7295,-5.7316,-5.7289,-5.7288,-5.7309,-5.7313,-5.7307,-5.7309,-5.705,-5.7282,-5.728,-5.7279,-5.7278,-5.7277,-5.6747,-5.6809,-5.6852,-5.6922,-5.6956,-5.7,-5.7059,-5.7075,-5.7138,-5.7207,-5.72,-5.7282,-5.7322,-5.7401,-5.7428,-5.749,-5.746,-5.7491,-5.7498,-5.7505,-5.7513,-5.7299,-5.7501,-5.7501,-5.75,-5.75,-5.75,0,-5.695,-5.6976,-5.7041,-5.7106,-5.7161,-5.7132,-5.7181,-5.7228,-5.7301,-5.7342,-5.7397,-5.7481,-5.7547,-5.7568,-5.7632,-5.7677,-5.7666,-5.7694,-5.769,-5.7695,-5.7537,-5.7512,-5.7702,-5.7702,-5.7702,-5.7702,-5.7702,-5.7702,-5.7063,-5.7166,-5.717,-5.7289,-5.7313,-5.7394,-5.7424,-5.7463,-5.7495,-5.759,-5.7645,-5.7659,-5.7691,-5.7756,-5.7815,-5.7819,-5.7842,-5.7875,-5.7874,-5.7727,-5.7706,-5.7687,-5.7662,-5.7881,-5.7881,-5.8026,-5.8027,-5.8028]}]]